"Pseudo-MPEC" for P218bXx

Created 2020 Oct 25 19:07:31 UT using Find_Orb

Click here for an explanation of pseudo-MPECs

 
 Astrometry: 
     P218bXx  C2020 10 17.UDtrpfr*nhr-M?+rH35Nn8uAstrometryU8_HFeWk:Pc0*P(5xKF52
     P218bXx  C2020 10 17a`Rk$(X9VL,,[xredacted;E)E0;j$ES5))qr\vYB(93-AkRq`8RF52
     P218bXx  C2020 10 17_]6*G+tLP';YefRGceik%VR!clickSRrmD$R'n6here)yd/)lJcWF52
     P218bXx  C2020 10 176o$SZmyfor_#Q`$^lPR7.^rWuU0_d:Qexplanationh#bYLf2,31F52

Station data:
(F52) Pan-STARRS 2, Haleakala  (N20.707384 W156.255910)  US/Hawaii. 1.8-m
   Ritchey-Chrétien + CCD.

Orbital elements:  P218bXx
   Perihelion 2020 Oct 10.363877 +/- 35.3 TT =  8:43:58 (JD 2459132.863877)
Epoch 2020 Oct 17.0 TT = JDT 2459139.5   Earth MOID: 0.2248   Ju: 0.3868
M   0.56999555 +/- 23               Sa: 0.9334                AutoNEOCP
n   0.08589285 +/- 0.2              Peri.  170.32924 +/- 60
a   5.08742522 +/- 8.08             Node   202.64506 +/- 36
e   0.7598305 +/- 0.249             Incl.   11.02932 +/- 4.2
P  11.47                   H 22.8   G  0.15   U 11.7  SR
q 1.22184406 +/- 0.303    Q 8.95300638 +/- 42.9
From 4 observations 2020 Oct. 17 (52.5 min); mean residual 0".18
Residuals in arcseconds: 
201017 F52  .12+  .24-    201017 F52  .04+  .01-    
201017 F52  .20-  .36+    201017 F52  .04+  .11-    

Ephemerides (geocentric):
Date (UTC) HH   RA              Dec         delta   r     elong  mag " sig PA
---- -- -- --  -------------   -----------  ------ ------ -----  --- ---- ---
2020 10 25 19  00 40 03.460   -00 41 20.36  .26362 1.2396 156.0 21.4  41d   3
2020 10 25 20  00 40 14.366   -00 42 20.64  .26375 1.2397 156.0 21.4  41d   3
2020 10 25 21  00 40 25.266   -00 43 20.82  .26388 1.2398 155.9 21.4  41d   3
2020 10 25 22  00 40 36.160   -00 44 20.89  .26401 1.2399 155.9 21.4  41d   3
2020 10 25 23  00 40 47.047   -00 45 20.85  .26415 1.2400 155.9 21.4  41d   3
2020 10 26 00  00 40 57.928   -00 46 20.71  .26428 1.2401 155.9 21.4  41d   3
2020 10 26 01  00 41 08.803   -00 47 20.46  .26441 1.2402 155.9 21.4  41d   3
2020 10 26 02  00 41 19.671   -00 48 20.10  .26455 1.2402 155.9 21.4  41d   3
2020 10 26 03  00 41 30.533   -00 49 19.63  .26468 1.2403 155.9 21.4  41d   3
2020 10 26 04  00 41 41.388   -00 50 19.06  .26482 1.2404 155.9 21.4  41d   3
2020 10 26 05  00 41 52.237   -00 51 18.37  .26495 1.2405 155.8 21.4  41d   3
2020 10 26 06  00 42 03.080   -00 52 17.58  .26509 1.2406 155.8 21.4  41d   3
2020 10 26 07  00 42 13.916   -00 53 16.68  .26522 1.2407 155.8 21.4  42d   3
2020 10 26 08  00 42 24.745   -00 54 15.67  .26536 1.2408 155.8 21.4  42d   3
2020 10 26 09  00 42 35.568   -00 55 14.56  .26549 1.2409 155.8 21.4  42d   3
2020 10 26 10  00 42 46.385   -00 56 13.33  .26563 1.2410 155.8 21.4  42d   3
2020 10 26 11  00 42 57.195   -00 57 12.00  .26577 1.2411 155.8 21.4  42d   3
2020 10 26 12  00 43 07.998   -00 58 10.56  .26591 1.2412 155.8 21.4  42d   3
2020 10 26 13  00 43 18.795   -00 59 09.01  .26604 1.2413 155.7 21.4  42d   3
2020 10 26 14  00 43 29.585   -01 00 07.35  .26618 1.2414 155.7 21.4  42d   3
2020 10 26 15  00 43 40.369   -01 01 05.58  .26632 1.2415 155.7 21.4  42d   3
2020 10 26 16  00 43 51.145   -01 02 03.70  .26646 1.2416 155.7 21.4  42d   3
2020 10 26 17  00 44 01.916   -01 03 01.71  .26660 1.2417 155.7 21.4  42d   3
2020 10 26 18  00 44 12.679   -01 03 59.61  .26674 1.2418 155.7 21.4  42d   3
2020 10 26 19  00 44 23.436   -01 04 57.41  .26688 1.2419 155.7 21.4  42d   3
2020 10 26 20  00 44 34.186   -01 05 55.09  .26702 1.2420 155.7 21.4  42d   3
2020 10 26 21  00 44 44.930   -01 06 52.66  .26716 1.2421 155.6 21.4  42d   3
2020 10 26 22  00 44 55.666   -01 07 50.12  .26730 1.2422 155.6 21.4  42d   3
2020 10 26 23  00 45 06.396   -01 08 47.48  .26744 1.2423 155.6 21.4  42d   3
2020 10 27 00  00 45 17.120   -01 09 44.72  .26758 1.2424 155.6 21.4  42d   3
2020 10 27 01  00 45 27.836   -01 10 41.85  .26772 1.2425 155.6 21.4  42d   3
2020 10 27 02  00 45 38.546   -01 11 38.87  .26786 1.2426 155.6 21.4  42d   3
2020 10 27 03  00 45 49.248   -01 12 35.79  .26801 1.2427 155.6 21.4  43d   3
2020 10 27 04  00 45 59.944   -01 13 32.59  .26815 1.2428 155.5 21.4  43d   3
2020 10 27 05  00 46 10.633   -01 14 29.28  .26829 1.2429 155.5 21.4  43d   3
2020 10 27 06  00 46 21.316   -01 15 25.86  .26844 1.2430 155.5 21.4  43d   3
2020 10 27 07  00 46 31.991   -01 16 22.32  .26858 1.2432 155.5 21.4  43d   3
2020 10 27 08  00 46 42.660   -01 17 18.68  .26872 1.2433 155.5 21.4  43d   3
2020 10 27 09  00 46 53.321   -01 18 14.93  .26887 1.2434 155.5 21.4  43d   3
2020 10 27 10  00 47 03.976   -01 19 11.06  .26901 1.2435 155.5 21.4  43d   3
2020 10 27 11  00 47 14.624   -01 20 07.09  .26916 1.2436 155.5 21.4  43d   3
2020 10 27 12  00 47 25.264   -01 21 03.00  .26930 1.2437 155.4 21.4  43d   3
2020 10 27 13  00 47 35.898   -01 21 58.80  .26945 1.2438 155.4 21.4  43d   3
2020 10 27 14  00 47 46.525   -01 22 54.49  .26960 1.2439 155.4 21.4  43d   3
2020 10 27 15  00 47 57.145   -01 23 50.06  .26974 1.2440 155.4 21.4  43d   3
2020 10 27 16  00 48 07.758   -01 24 45.53  .26989 1.2441 155.4 21.4  43d   3
2020 10 27 17  00 48 18.364   -01 25 40.88  .27004 1.2442 155.4 21.4  43d   3
2020 10 27 18  00 48 28.962   -01 26 36.12  .27019 1.2443 155.4 21.4  43d   3